ニート彗星

207P/NEAT (2024)

English version
Home page
Updated on December 1, 2023

---------------------------------------------------------------------

・ プロフィール

・ 写真集

・ 軌道要素

Epoch 2023 Sept. 13.0 TT = JDT 2460200.5
T 2024 Jan. 31.80987 TT                                 Rudenko
q   0.9381217            (2000.0)            P               Q
n   0.12882658     Peri.  272.98716     -0.35586045     -0.93290732
a   3.8826871      Node   198.16101     +0.91228083     -0.33396320
e   0.7583834      Incl.   10.20129     +0.20274867     -0.13473127
P   7.65
>From 155 observations 2000 Oct. 7-2023 Aug. 19, mean residual 0".9.

・ 星図

・ 光度変化

        m1 = 16.0 + 5 logΔ + 10.0 log r

---------------------------------------------------------------------

軌道要素はM.P.E.C. 2023-Q150に掲載されたものです。
星図はステラナビゲータ Ver.10 (アストロアーツ) で作成したものです。
光度グラフはComet for Windowsで作成したものです。

---------------------------------------------------------------------

Copyright(C) Seiichi Yoshida (comet@aerith.net). All rights reserved.